QPF
0.03 0.03 0.03 0.02 0.02 0.02 0.02 0.03 0.04 0.05 0.05 0.05 0.05 0.05 0.05 0.06 0.06 0.08 0.06 0.04 0.04 0.05 0.11 0.15 0.10 0.07 0.07 0.06 0.06 0.05 0.03 0.03 0.02 0.02 0.03 0.03 0.02 0.03 0.03 0.02 0.02 0.01 0.02 0.02 0.04 0.03 0.02 0.03 0.02
0.02 0.03 0.03 0.01 0.01 0.02 0.01 0.02 0.04 0.05 0.04 0.03 0.03 0.03 0.04 0.03 0.03 0.06 0.06 0.06 0.04 0.05 0.08 0.10 0.09 0.06 0.05 0.05 0.04 0.04 0.03 0.03 0.02 0.02 0.03 0.03 0.03 0.04 0.02 0.02 0.03 0.02 0.02 0.02 0.02 0.02 0.02 0.02 0.02
0.03 0.03 0.01 0.00 0.01 0.01 0.02 0.03 0.05 0.06 0.05 0.03 0.03 0.02 0.02 0.03 0.04 0.07 0.05 0.04 0.03 0.05 0.07 0.09 0.08 0.07 0.06 0.05 0.03 0.03 0.04 0.03 0.03 0.02 0.03 0.04 0.04 0.03 0.03 0.02 0.03 0.02 0.01 0.01 0.02 0.02 0.02 0.02 0.01
0.03 0.01 0.00 0.00 0.01 0.01 0.02 0.05 0.05 0.04 0.04 0.03 0.02 0.04 0.03 0.03 0.05 0.07 0.04 0.04 0.03 0.05 0.07 0.07 0.05 0.05 0.05 0.04 0.04 0.04 0.04 0.04 0.03 0.02 0.03 0.03 0.03 0.02 0.02 0.02 0.02 0.01 0.01 0.01 0.01 0.01 0.01 0.01 0.01
0.01 0.01 0.00 0.01 0.01 0.02 0.04 0.06 0.06 0.04 0.02 0.03 0.02 0.03 0.03 0.03 0.05 0.07 0.06 0.05 0.03 0.05 0.06 0.05 0.06 0.06 0.05 0.04 0.03 0.03 0.02 0.02 0.03 0.03 0.03 0.03 0.03 0.03 0.02 0.01 0.02 0.01 0.01 0.00 0.00 0.01 0.01 0.02 0.02
0.01 0.00 0.01 0.02 0.01 0.03 0.04 0.05 0.05 0.03 0.02 0.02 0.02 0.02 0.04 0.05 0.05 0.11 0.07 0.03 0.02 0.03 0.03 0.05 0.07 0.06 0.06 0.03 0.02 0.02 0.01 0.01 0.02 0.02 0.03 0.03 0.02 0.02 0.02 0.02 0.02 0.01 0.01 0.00 0.00 0.01 0.01 0.01 0.02
0.01 0.00 0.01 0.02 0.02 0.03 0.04 0.05 0.05 0.03 0.02 0.02 0.01 0.01 0.04 0.07 0.06 0.08 0.06 0.03 0.02 0.03 0.03 0.03 0.05 0.06 0.05 0.03 0.02 0.01 0.01 0.01 0.02 0.02 0.02 0.01 0.01 0.01 0.01 0.01 0.01 0.01 0.01 0.00 0.00 0.00 0.01 0.01 0.01
0.01 0.00 0.01 0.03 0.03 0.04 0.04 0.05 0.05 0.02 0.02 0.01 0.00 0.00 0.04 0.07 0.06 0.06 0.04 0.03 0.01 0.02 0.02 0.01 0.02 0.05 0.04 0.03 0.02 0.01 0.02 0.04 0.05 0.03 0.01 0.01 0.01 0.00 0.00 0.01 0.00 0.00 0.00 0.00 0.00 0.00 0.01 0.01 0.01
0.01 0.01 0.02 0.04 0.04 0.05 0.05 0.04 0.03 0.01 0.01 0.01 0.00 0.00 0.02 0.05 0.04 0.03 0.04 0.03 0.02 0.01 0.01 0.01 0.01 0.02 0.02 0.01 0.01 0.01 0.03 0.05 0.03 0.01 0.01 0.01 0.00 0.00 0.00 0.00 0.00 0.00 0.00 0.00 0.00 0.01 0.01 0.01 0.01
0.01 0.01 0.02 0.02 0.02 0.03 0.04 0.03 0.01 0.01 0.01 0.00 0.01 0.01 0.03 0.03 0.02 0.02 0.02 0.01 0.01 0.01 0.01 0.00 0.01 0.01 0.00 0.01 0.01 0.01 0.01 0.02 0.01 0.00 0.01 0.00 0.00 0.01 0.00 0.00 0.00 0.00 0.00 0.00 0.00 0.00 0.00 0.00 0.00
0.01 0.01 0.01 0.01 0.01 0.02 0.04 0.03 0.01 0.01 0.01 0.01 0.00 0.01 0.03 0.03 0.02 0.01 0.02 0.02 0.01 0.01 0.01 0.01 0.01 0.00 0.00 0.00 0.00 0.00 0.00 0.00 0.00 0.00 0.00 0.01 0.01 0.01 0.00 0.00 0.00 0.00 0.00 0.00 0.00 0.00 0.00 0.00 0.00
0.01 0.02 0.02 0.00 0.00 0.02 0.04 0.04 0.03 0.02 0.01 0.01 0.00 0.00 0.01 0.01 0.01 0.01 0.01 0.01 0.01 0.01 0.02 0.02 0.02 0.01 0.00 0.00 0.00 0.00 0.00 0.00 0.00 0.00 0.00 0.01 0.01 0.00 0.00 0.00 0.00 0.00 0.00 0.00 0.00 0.00 0.00 0.00 0.00
0.01 0.02 0.02 0.02 0.01 0.02 0.03 0.03 0.02 0.02 0.01 0.01 0.01 0.01 0.01 0.01 0.00 0.01 0.01 0.01 0.01 0.01 0.01 0.01 0.01 0.01 0.01 0.00 0.00 0.00 0.00 0.00 0.00 0.00 0.00 0.00 0.00 0.00 0.00 0.00 0.00 0.00 0.00 0.00 0.00 0.00 0.00 0.00 0.00
0.01 0.01 0.02 0.01 0.01 0.01 0.03 0.04 0.02 0.02 0.01 0.01 0.01 0.02 0.02 0.01 0.01 0.01 0.01 0.01 0.01 0.01 0.01 0.01 0.01 0.00 0.00 0.00 0.00 0.00 0.00 0.00 0.00 0.00 0.00 0.00 0.00 0.00 0.00 0.00 0.00 0.00 0.00 0.00 0.00 0.00 0.00 0.00 0.01
0.01 0.01 0.01 0.02 0.02 0.02 0.01 0.03 0.02 0.03 0.03 0.03 0.02 0.02 0.03 0.02 0.01 0.01 0.01 0.01 0.01 0.01 0.01 0.01 0.01 0.01 0.01 0.00 0.00 0.00 0.01 0.01 0.00 0.00 0.00 0.00 0.00 0.00 0.00 0.00 0.00 0.00 0.00 0.00 0.00 0.00 0.00 0.00 0.00
0.01 0.01 0.02 0.03 0.03 0.02 0.01 0.01 0.02 0.02 0.04 0.04 0.03 0.02 0.03 0.01 0.01 0.01 0.01 0.02 0.01 0.01 0.01 0.01 0.01 0.01 0.01 0.01 0.00 0.00 0.01 0.01 0.00 0.00 0.00 0.00 0.00 0.00 0.00 0.00 0.00 0.00 0.00 0.00 0.00 0.00 0.00 0.00 0.00
0.00 0.01 0.03 0.04 0.04 0.02 0.01 0.00 0.01 0.02 0.03 0.04 0.04 0.02 0.02 0.01 0.01 0.01 0.01 0.02 0.02 0.02 0.02 0.01 0.01 0.01 0.01 0.01 0.00 0.00 0.00 0.01 0.00 0.00 0.00 0.00 0.00 0.00 0.00 0.00 0.00 0.00 0.00 0.00 0.00 0.00 0.00 0.00 0.00
0.00 0.01 0.02 0.02 0.03 0.02 0.01 0.00 0.01 0.02 0.02 0.02 0.03 0.03 0.02 0.01 0.01 0.01 0.01 0.01 0.01 0.02 0.02 0.01 0.01 0.01 0.01 0.01 0.01 0.00 0.00 0.00 0.00 0.00 0.00 0.00 0.00 0.00 0.00 0.00 0.00 0.00 0.00 0.00 0.00 0.00 0.00 0.00 0.00
0.00 0.00 0.01 0.01 0.01 0.01 0.01 0.00 0.01 0.02 0.02 0.01 0.02 0.02 0.02 0.02 0.02 0.02 0.01 0.01 0.00 0.01 0.01 0.01 0.01 0.02 0.01 0.01 0.01 0.00 0.00 0.00 0.01 0.01 0.01 0.00 0.00 0.00 0.00 0.00 0.00 0.00 0.00 0.00 0.00 0.00 0.00 0.00 0.00
0.00 0.00 0.01 0.01 0.01 0.01 0.01 0.00 0.01 0.02 0.02 0.01 0.01 0.02 0.01 0.01 0.01 0.01 0.01 0.02 0.02 0.01 0.01 0.01 0.02 0.03 0.02 0.02 0.01 0.01 0.00 0.01 0.01 0.01 0.01 0.01 0.00 0.00 0.00 0.00 0.00 0.00 0.00 0.00 0.00 0.00 0.00 0.00 0.00
0.00 0.01 0.01 0.01 0.02 0.02 0.01 0.01 0.01 0.02 0.01 0.01 0.01 0.02 0.01 0.01 0.00 0.00 0.01 0.01 0.01 0.02 0.02 0.02 0.03 0.03 0.03 0.02 0.02 0.01 0.01 0.00 0.00 0.01 0.02 0.01 0.00 0.00 0.00 0.00 0.00 0.00 0.00 0.00 0.00 0.00 0.00 0.00 0.00
0.00 0.00 0.01 0.01 0.01 0.01 0.01 0.01 0.01 0.02 0.02 0.00 0.01 0.02 0.01 0.01 0.00 0.01 0.01 0.01 0.00 0.01 0.02 0.02 0.03 0.04 0.04 0.03 0.03 0.02 0.01 0.01 0.01 0.01 0.01 0.01 0.01 0.00 0.00 0.00 0.00 0.00 0.00 0.00 0.00 0.00 0.00 0.00 0.00
0.00 0.00 0.01 0.01 0.01 0.01 0.00 0.01 0.01 0.01 0.02 0.01 0.01 0.01 0.01 0.01 0.00 0.00 0.00 0.00 0.01 0.01 0.02 0.02 0.03 0.03 0.04 0.05 0.04 0.04 0.02 0.01 0.01 0.00 0.01 0.01 0.01 0.00 0.00 0.00 0.00 0.00 0.00 0.00 0.00 0.00 0.00 0.00 0.00
0.00 0.00 0.01 0.01 0.01 0.00 0.00 0.00 0.00 0.01 0.01 0.01 0.01 0.01 0.01 0.01 0.01 0.01 0.00 0.01 0.00 0.01 0.01 0.02 0.02 0.02 0.04 0.05 0.04 0.04 0.03 0.02 0.01 0.00 0.00 0.01 0.01 0.00 0.00 0.00 0.00 0.00 0.00 0.00 0.00 0.00 0.00 0.00 0.00
0.01 0.01 0.01 0.01 0.01 0.00 0.00 0.00 0.00 0.00 0.00 0.01 0.01 0.00 0.00 0.00 0.00 0.00 0.00 0.00 0.00 0.00 0.01 0.01 0.02 0.04 0.05 0.05 0.04 0.04 0.03 0.02 0.01 0.01 0.01 0.01 0.01 0.01 0.00 0.00 0.00 0.00 0.00 0.00 0.00 0.00 0.00 0.00 0.00
0.01 0.01 0.01 0.00 0.00 0.00 0.00 0.00 0.00 0.00 0.00 0.01 0.00 0.00 0.00 0.00 0.00 0.00 0.00 0.00 0.00 0.00 0.01 0.01 0.01 0.03 0.04 0.04 0.04 0.04 0.04 0.02 0.02 0.01 0.01 0.01 0.01 0.01 0.01 0.00 0.00 0.00 0.00 0.00 0.00 0.00 0.00 0.00 0.00
0.01 0.01 0.01 0.00 0.00 0.00 0.00 0.00 0.00 0.00 0.00 0.00 0.00 0.00 0.00 0.00 0.00 0.01 0.00 0.01 0.01 0.01 0.01 0.02 0.02 0.02 0.02 0.03 0.04 0.04 0.03 0.02 0.01 0.01 0.01 0.02 0.02 0.02 0.01 0.01 0.00 0.00 0.00 0.00 0.00 0.00 0.00 0.00 0.00
0.01 0.01 0.01 0.01 0.00 0.00 0.00 0.00 0.00 0.00 0.00 0.00 0.00 0.00 0.01 0.01 0.01 0.01 0.00 0.00 0.01 0.01 0.01 0.02 0.02 0.02 0.02 0.01 0.02 0.03 0.03 0.03 0.02 0.01 0.02 0.02 0.03 0.02 0.02 0.01 0.01 0.00 0.00 0.00 0.00 0.00 0.00 0.00 0.00
0.01 0.01 0.01 0.01 0.00 0.00 0.00 0.00 0.00 0.00 0.00 0.00 0.00 0.00 0.01 0.01 0.01 0.01 0.00 0.00 0.01 0.01 0.01 0.01 0.02 0.02 0.02 0.01 0.01 0.01 0.02 0.02 0.02 0.02 0.02 0.02 0.02 0.02 0.02 0.02 0.01 0.00 0.00 0.00 0.00 0.00 0.00 0.00 0.00
0.01 0.01 0.00 0.00 0.00 0.00 0.00 0.00 0.00 0.00 0.01 0.00 0.00 0.00 0.01 0.01 0.01 0.01 0.01 0.00 0.00 0.01 0.01 0.01 0.01 0.01 0.01 0.01 0.01 0.01 0.01 0.01 0.01 0.02 0.02 0.02 0.01 0.01 0.02 0.01 0.01 0.00 0.00 0.00 0.00 0.00 0.00 0.00 0.00
MSLP
1010.50 1011.43 1012.57 1013.80 1015.00 1016.06 1016.89 1017.45 1017.76 1017.88 1017.90 1017.91 1017.96 1018.08 1018.26 1018.43 1018.53 1018.49 1018.28 1017.91 1017.41 1016.87 1016.36 1015.95 1015.69 1015.57 1015.56 1015.61 1015.67 1015.70 1015.68 1015.61 1015.51 1015.43 1015.40 1015.43 1015.50 1015.61 1015.72 1015.79 1015.79 1015.73 1015.62 1015.47 1015.31 1015.17 1015.07 1015.01 1014.98
1011.05 1012.13 1013.37 1014.65 1015.84 1016.83 1017.57 1018.01 1018.20 1018.21 1018.14 1018.06 1018.04 1018.10 1018.22 1018.34 1018.39 1018.32 1018.11 1017.76 1017.32 1016.86 1016.45 1016.13 1015.95 1015.89 1015.92 1015.99 1016.05 1016.07 1016.03 1015.95 1015.86 1015.78 1015.75 1015.78 1015.85 1015.95 1016.04 1016.08 1016.06 1015.98 1015.85 1015.70 1015.54 1015.41 1015.32 1015.27 1015.26
1011.76 1012.94 1014.23 1015.50 1016.63 1017.52 1018.14 1018.46 1018.54 1018.46 1018.32 1018.20 1018.14 1018.16 1018.23 1018.30 1018.31 1018.22 1018.00 1017.67 1017.28 1016.89 1016.56 1016.33 1016.23 1016.23 1016.29 1016.38 1016.44 1016.44 1016.39 1016.30 1016.20 1016.12 1016.09 1016.10 1016.16 1016.23 1016.28 1016.29 1016.25 1016.15 1016.01 1015.87 1015.73 1015.63 1015.58 1015.56 1015.58
1012.60 1013.83 1015.11 1016.31 1017.34 1018.10 1018.57 1018.77 1018.76 1018.62 1018.45 1018.31 1018.24 1018.25 1018.30 1018.34 1018.32 1018.20 1017.97 1017.66 1017.32 1017.00 1016.74 1016.59 1016.55 1016.59 1016.67 1016.76 1016.80 1016.79 1016.73 1016.62 1016.52 1016.43 1016.39 1016.39 1016.42 1016.46 1016.48 1016.46 1016.39 1016.28 1016.15 1016.03 1015.93 1015.87 1015.86 1015.89 1015.95
1013.50 1014.73 1015.95 1017.04 1017.91 1018.52 1018.84 1018.93 1018.85 1018.68 1018.51 1018.39 1018.35 1018.37 1018.42 1018.45 1018.41 1018.28 1018.05 1017.76 1017.46 1017.19 1017.00 1016.91 1016.91 1016.97 1017.06 1017.12 1017.14 1017.11 1017.02 1016.91 1016.80 1016.72 1016.67 1016.67 1016.68 1016.69 1016.68 1016.63 1016.54 1016.43 1016.32 1016.22 1016.16 1016.15 1016.19 1016.26 1016.36
1014.35 1015.55 1016.66 1017.60 1018.31 1018.74 1018.93 1018.92 1018.79 1018.62 1018.49 1018.42 1018.44 1018.50 1018.57 1018.60 1018.56 1018.42 1018.21 1017.95 1017.69 1017.47 1017.33 1017.28 1017.30 1017.36 1017.43 1017.46 1017.44 1017.37 1017.26 1017.14 1017.04 1016.97 1016.94 1016.94 1016.94 1016.94 1016.91 1016.84 1016.75 1016.64 1016.54 1016.47 1016.45 1016.48 1016.55 1016.66 1016.77
1015.07 1016.19 1017.17 1017.95 1018.48 1018.76 1018.83 1018.75 1018.61 1018.47 1018.40 1018.41 1018.49 1018.61 1018.71 1018.76 1018.73 1018.60 1018.40 1018.17 1017.95 1017.78 1017.69 1017.66 1017.69 1017.74 1017.77 1017.75 1017.69 1017.58 1017.45 1017.33 1017.24 1017.19 1017.19 1017.21 1017.23 1017.23 1017.19 1017.11 1017.01 1016.91 1016.82 1016.77 1016.78 1016.83 1016.93 1017.04 1017.16
1015.60 1016.62 1017.47 1018.10 1018.47 1018.61 1018.59 1018.47 1018.34 1018.26 1018.27 1018.36 1018.52 1018.70 1018.84 1018.90 1018.87 1018.75 1018.57 1018.38 1018.20 1018.08 1018.02 1018.02 1018.05 1018.07 1018.06 1017.99 1017.88 1017.74 1017.59 1017.47 1017.40 1017.39 1017.42 1017.47 1017.52 1017.53 1017.50 1017.42 1017.32 1017.21 1017.13 1017.10 1017.12 1017.18 1017.28 1017.40 1017.50
1015.95 1016.88 1017.60 1018.08 1018.32 1018.36 1018.28 1018.16 1018.06 1018.06 1018.15 1018.33 1018.56 1018.78 1018.94 1019.01 1018.98 1018.86 1018.70 1018.53 1018.39 1018.32 1018.30 1018.32 1018.34 1018.34 1018.29 1018.18 1018.03 1017.85 1017.69 1017.58 1017.54 1017.56 1017.63 1017.72 1017.79 1017.82 1017.80 1017.73 1017.62 1017.52 1017.44 1017.42 1017.44 1017.51 1017.61 1017.72 1017.81
1016.20 1017.03 1017.63 1017.99 1018.13 1018.10 1018.00 1017.90 1017.86 1017.93 1018.11 1018.36 1018.63 1018.87 1019.04 1019.09 1019.04 1018.92 1018.75 1018.60 1018.50 1018.46 1018.48 1018.52 1018.55 1018.54 1018.47 1018.32 1018.14 1017.94 1017.77 1017.66 1017.64 1017.69 1017.80 1017.92 1018.02 1018.07 1018.06 1017.99 1017.89 1017.80 1017.73 1017.71 1017.74 1017.82 1017.92 1018.02 1018.10
1016.44 1017.18 1017.68 1017.94 1018.01 1017.95 1017.85 1017.78 1017.81 1017.95 1018.19 1018.49 1018.78 1019.02 1019.15 1019.17 1019.08 1018.92 1018.74 1018.59 1018.51 1018.50 1018.55 1018.62 1018.67 1018.66 1018.58 1018.42 1018.22 1018.01 1017.84 1017.74 1017.73 1017.80 1017.93 1018.07 1018.19 1018.25 1018.26 1018.20 1018.11 1018.02 1017.97 1017.96 1018.02 1018.11 1018.23 1018.34 1018.42
1016.78 1017.44 1017.85 1018.03 1018.04 1017.96 1017.88 1017.86 1017.94 1018.14 1018.42 1018.73 1019.02 1019.21 1019.29 1019.24 1019.09 1018.88 1018.67 1018.51 1018.43 1018.44 1018.52 1018.62 1018.69 1018.71 1018.64 1018.50 1018.30 1018.09 1017.92 1017.83 1017.82 1017.89 1018.02 1018.17 1018.30 1018.37 1018.38 1018.34 1018.27 1018.21 1018.18 1018.20 1018.29 1018.42 1018.57 1018.70 1018.80
1017.30 1017.86 1018.18 1018.29 1018.27 1018.18 1018.11 1018.13 1018.25 1018.48 1018.78 1019.08 1019.32 1019.46 1019.46 1019.32 1019.09 1018.82 1018.56 1018.38 1018.29 1018.31 1018.40 1018.53 1018.64 1018.69 1018.66 1018.55 1018.38 1018.20 1018.04 1017.94 1017.93 1017.99 1018.11 1018.25 1018.37 1018.44 1018.46 1018.44 1018.40 1018.37 1018.38 1018.45 1018.58 1018.75 1018.94 1019.12 1019.25
1017.98 1018.45 1018.68 1018.73 1018.66 1018.57 1018.52 1018.55 1018.69 1018.93 1019.20 1019.46 1019.64 1019.70 1019.61 1019.39 1019.08 1018.74 1018.44 1018.21 1018.11 1018.12 1018.23 1018.38 1018.54 1018.64 1018.66 1018.60 1018.48 1018.33 1018.19 1018.10 1018.08 1018.12 1018.22 1018.33 1018.43 1018.51 1018.54 1018.55 1018.54 1018.55 1018.61 1018.72 1018.90 1019.13 1019.37 1019.59 1019.77
1018.75 1019.12 1019.26 1019.25 1019.15 1019.05 1019.00 1019.04 1019.18 1019.38 1019.61 1019.81 1019.91 1019.88 1019.71 1019.42 1019.05 1018.65 1018.30 1018.04 1017.92 1017.92 1018.03 1018.20 1018.40 1018.55 1018.64 1018.66 1018.61 1018.51 1018.41 1018.33 1018.29 1018.31 1018.37 1018.45 1018.54 1018.60 1018.65 1018.68 1018.71 1018.77 1018.87 1019.04 1019.26 1019.53 1019.81 1020.08 1020.29
1019.50 1019.76 1019.82 1019.76 1019.65 1019.54 1019.48 1019.51 1019.61 1019.77 1019.93 1020.04 1020.06 1019.95 1019.72 1019.37 1018.96 1018.54 1018.16 1017.88 1017.74 1017.73 1017.84 1018.03 1018.26 1018.47 1018.63 1018.73 1018.76 1018.73 1018.67 1018.61 1018.57 1018.57 1018.59 1018.64 1018.69 1018.75 1018.81 1018.87 1018.94 1019.04 1019.18 1019.38 1019.64 1019.93 1020.24 1020.53 1020.78
1020.10 1020.26 1020.27 1020.18 1020.06 1019.96 1019.90 1019.90 1019.95 1020.03 1020.10 1020.11 1020.04 1019.87 1019.59 1019.23 1018.81 1018.39 1018.02 1017.74 1017.59 1017.57 1017.68 1017.88 1018.13 1018.40 1018.64 1018.82 1018.93 1018.98 1018.98 1018.95 1018.91 1018.88 1018.87 1018.88 1018.91 1018.96 1019.02 1019.10 1019.20 1019.33 1019.51 1019.72 1019.99 1020.28 1020.60 1020.89 1021.16
1020.44 1020.54 1020.53 1020.46 1020.38 1020.30 1020.24 1020.21 1020.19 1020.17 1020.12 1020.02 1019.86 1019.63 1019.33 1018.97 1018.59 1018.21 1017.88 1017.63 1017.49 1017.47 1017.57 1017.77 1018.05 1018.36 1018.66 1018.92 1019.12 1019.24 1019.30 1019.31 1019.27 1019.23 1019.19 1019.16 1019.17 1019.20 1019.26 1019.35 1019.47 1019.63 1019.81 1020.03 1020.28 1020.56 1020.84 1021.13 1021.39
1020.50 1020.59 1020.62 1020.62 1020.60 1020.58 1020.53 1020.46 1020.36 1020.22 1020.03 1019.80 1019.54 1019.26 1018.94 1018.62 1018.30 1018.00 1017.74 1017.54 1017.43 1017.42 1017.52 1017.72 1018.01 1018.34 1018.69 1019.02 1019.30 1019.50 1019.61 1019.65 1019.63 1019.57 1019.50 1019.44 1019.42 1019.44 1019.49 1019.59 1019.72 1019.88 1020.06 1020.26 1020.48 1020.71 1020.96 1021.21 1021.46
1020.32 1020.46 1020.59 1020.71 1020.82 1020.87 1020.85 1020.74 1020.53 1020.24 1019.89 1019.51 1019.14 1018.78 1018.47 1018.19 1017.95 1017.76 1017.59 1017.47 1017.41 1017.42 1017.53 1017.72 1018.01 1018.36 1018.74 1019.12 1019.45 1019.71 1019.88 1019.94 1019.93 1019.86 1019.77 1019.68 1019.63 1019.62 1019.67 1019.77 1019.90 1020.05 1020.22 1020.39 1020.57 1020.76 1020.95 1021.16 1021.37
1020.01 1020.26 1020.55 1020.85 1021.10 1021.25 1021.26 1021.09 1020.76 1020.30 1019.76 1019.21 1018.70 1018.27 1017.94 1017.71 1017.57 1017.48 1017.43 1017.41 1017.41 1017.46 1017.57 1017.75 1018.03 1018.37 1018.77 1019.18 1019.55 1019.85 1020.06 1020.15 1020.14 1020.07 1019.95 1019.84 1019.76 1019.74 1019.77 1019.86 1019.99 1020.13 1020.28 1020.42 1020.55 1020.69 1020.83 1020.99 1021.17
1019.71 1020.12 1020.61 1021.10 1021.52 1021.78 1021.81 1021.57 1021.10 1020.45 1019.69 1018.94 1018.27 1017.75 1017.39 1017.20 1017.14 1017.17 1017.24 1017.32 1017.40 1017.49 1017.61 1017.79 1018.04 1018.38 1018.77 1019.18 1019.58 1019.90 1020.13 1020.24 1020.24 1020.16 1020.03 1019.89 1019.80 1019.76 1019.78 1019.87 1019.99 1020.12 1020.25 1020.37 1020.46 1020.54 1020.64 1020.75 1020.90
1019.54 1020.13 1020.83 1021.53 1022.10 1022.45 1022.47 1022.16 1021.53 1020.66 1019.68 1018.72 1017.88 1017.24 1016.85 1016.68 1016.70 1016.83 1017.01 1017.19 1017.35 1017.48 1017.62 1017.79 1018.03 1018.34 1018.72 1019.12 1019.52 1019.85 1020.09 1020.21 1020.22 1020.13 1019.99 1019.85 1019.74 1019.69 1019.71 1019.79 1019.91 1020.04 1020.16 1020.26 1020.32 1020.37 1020.42 1020.49 1020.61
1019.55 1020.33 1021.22 1022.09 1022.79 1023.19 1023.19 1022.78 1021.98 1020.90 1019.70 1018.53 1017.52 1016.77 1016.32 1016.16 1016.23 1016.45 1016.73 1017.00 1017.23 1017.41 1017.57 1017.74 1017.96 1018.25 1018.60 1018.99 1019.37 1019.70 1019.95 1020.07 1020.07 1019.99 1019.85 1019.70 1019.59 1019.55 1019.57 1019.66 1019.79 1019.92 1020.04 1020.12 1020.17 1020.19 1020.21 1020.25 1020.34
1019.76 1020.68 1021.72 1022.72 1023.50 1023.91 1023.85 1023.32 1022.36 1021.09 1019.69 1018.33 1017.18 1016.33 1015.83 1015.66 1015.77 1016.05 1016.40 1016.75 1017.04 1017.26 1017.45 1017.62 1017.82 1018.09 1018.41 1018.77 1019.14 1019.46 1019.70 1019.82 1019.83 1019.76 1019.63 1019.49 1019.39 1019.36 1019.40 1019.50 1019.64 1019.79 1019.91 1019.99 1020.03 1020.03 1020.03 1020.05 1020.11
1020.09 1021.12 1022.25 1023.30 1024.09 1024.46 1024.33 1023.68 1022.58 1021.15 1019.60 1018.11 1016.85 1015.92 1015.38 1015.21 1015.34 1015.65 1016.05 1016.45 1016.79 1017.05 1017.25 1017.42 1017.62 1017.86 1018.16 1018.50 1018.85 1019.15 1019.38 1019.50 1019.52 1019.45 1019.34 1019.22 1019.15 1019.14 1019.20 1019.32 1019.48 1019.65 1019.78 1019.87 1019.91 1019.91 1019.90 1019.90 1019.95
1020.45 1021.53 1022.67 1023.70 1024.45 1024.75 1024.52 1023.77 1022.56 1021.04 1019.40 1017.85 1016.53 1015.58 1015.02 1014.84 1014.98 1015.31 1015.73 1016.15 1016.51 1016.79 1017.00 1017.18 1017.37 1017.60 1017.88 1018.19 1018.51 1018.79 1019.00 1019.12 1019.14 1019.09 1019.00 1018.91 1018.87 1018.89 1018.98 1019.13 1019.32 1019.50 1019.65 1019.75 1019.80 1019.81 1019.80 1019.80 1019.83
1020.75 1021.81 1022.90 1023.85 1024.49 1024.69 1024.37 1023.54 1022.28 1020.74 1019.10 1017.56 1016.27 1015.33 1014.78 1014.61 1014.74 1015.06 1015.47 1015.89 1016.24 1016.52 1016.74 1016.92 1017.11 1017.33 1017.58 1017.87 1018.16 1018.42 1018.60 1018.71 1018.73 1018.68 1018.61 1018.56 1018.54 1018.60 1018.72 1018.91 1019.12 1019.33 1019.50 1019.62 1019.69 1019.71 1019.71 1019.71 1019.75
1020.91 1021.89 1022.86 1023.68 1024.18 1024.26 1023.86 1023.00 1021.76 1020.27 1018.72 1017.28 1016.08 1015.21 1014.71 1014.55 1014.67 1014.97 1015.34 1015.72 1016.05 1016.31 1016.52 1016.69 1016.87 1017.08 1017.32 1017.58 1017.83 1018.05 1018.20 1018.28 1018.29 1018.25 1018.19 1018.15 1018.17 1018.25 1018.42 1018.63 1018.87 1019.10 1019.30 1019.45 1019.53 1019.57 1019.59 1019.61 1019.66
1020.91 1021.77 1022.58 1023.22 1023.56 1023.52 1023.07 1022.22 1021.05 1019.70 1018.32 1017.04 1016.00 1015.25 1014.82 1014.69 1014.80 1015.05 1015.37 1015.69 1015.96 1016.19 1016.37 1016.53 1016.70 1016.89 1017.11 1017.33 1017.55 1017.72 1017.82 1017.86 1017.84 1017.78 1017.72 1017.70 1017.74 1017.85 1018.04 1018.28 1018.55 1018.81 1019.03 1019.19 1019.30 1019.37 1019.41 1019.45 1019.51
Thickness
5778 5778 5776 5764 5743 5723 5718 5725 5732 5734 5738 5744 5748 5746 5741 5736 5734 5730 5747 5757 5759 5760 5761 5762 5763 5763 5764 5764 5764 5764 5765 5765 5764 5764 5765 5765 5765 5766 5766 5767 5767 5767 5767 5767 5767 5767 5767 5767 5767
5777 5776 5766 5749 5725 5708 5713 5726 5729 5735 5741 5746 5746 5744 5740 5738 5743 5744 5749 5755 5757 5758 5759 5760 5761 5761 5762 5762 5762 5762 5763 5763 5762 5762 5763 5763 5763 5764 5764 5765 5765 5765 5765 5765 5765 5765 5765 5765 5765
5775 5771 5752 5734 5717 5710 5716 5728 5731 5738 5745 5745 5740 5740 5738 5737 5743 5746 5751 5754 5755 5756 5757 5758 5758 5759 5759 5760 5760 5760 5760 5760 5760 5761 5761 5761 5761 5761 5762 5762 5763 5763 5763 5763 5763 5763 5763 5762 5762
5768 5756 5743 5725 5715 5720 5725 5730 5735 5737 5740 5742 5739 5733 5737 5743 5746 5749 5752 5753 5753 5754 5755 5756 5756 5757 5757 5757 5757 5758 5758 5758 5758 5758 5759 5759 5759 5759 5760 5760 5760 5761 5761 5761 5761 5761 5760 5761 5760
5759 5742 5725 5712 5715 5723 5729 5734 5737 5733 5733 5736 5736 5728 5730 5742 5748 5750 5750 5750 5750 5751 5752 5753 5754 5754 5755 5755 5755 5755 5756 5756 5756 5756 5756 5756 5757 5757 5758 5758 5758 5758 5759 5759 5759 5759 5758 5758 5758
5743 5732 5711 5704 5713 5723 5729 5734 5734 5731 5730 5733 5732 5726 5727 5740 5744 5746 5747 5747 5748 5749 5749 5750 5751 5751 5752 5753 5753 5753 5754 5754 5754 5754 5754 5754 5755 5755 5755 5756 5756 5756 5756 5756 5756 5756 5755 5755 5755
5735 5721 5709 5709 5711 5718 5727 5734 5730 5727 5727 5729 5732 5724 5727 5735 5741 5744 5744 5745 5745 5746 5746 5747 5747 5748 5749 5750 5750 5751 5752 5752 5752 5752 5752 5752 5752 5753 5753 5753 5754 5754 5754 5754 5754 5753 5752 5752 5751
5740 5723 5711 5708 5710 5716 5729 5732 5732 5730 5727 5735 5734 5723 5723 5733 5739 5741 5741 5741 5742 5743 5744 5744 5745 5745 5746 5747 5747 5748 5749 5750 5750 5750 5750 5750 5750 5750 5750 5751 5751 5752 5752 5751 5751 5750 5749 5749 5748
5743 5716 5704 5710 5712 5718 5728 5728 5730 5734 5730 5731 5732 5731 5733 5736 5736 5735 5734 5735 5737 5739 5740 5741 5742 5742 5743 5744 5744 5745 5746 5746 5747 5747 5747 5748 5748 5748 5748 5748 5749 5749 5749 5749 5748 5747 5746 5745 5744
5731 5709 5714 5723 5724 5723 5727 5727 5727 5725 5721 5722 5725 5729 5733 5732 5731 5729 5729 5729 5732 5734 5737 5739 5739 5740 5740 5741 5742 5742 5743 5743 5744 5744 5745 5745 5745 5745 5745 5746 5746 5746 5746 5746 5745 5744 5743 5742 5740
5729 5717 5723 5728 5731 5729 5726 5725 5728 5721 5715 5719 5721 5724 5727 5727 5727 5727 5727 5728 5730 5733 5735 5737 5737 5738 5738 5739 5740 5740 5740 5741 5742 5742 5742 5743 5743 5742 5743 5743 5742 5743 5743 5742 5741 5740 5739 5738 5736
5726 5725 5728 5729 5733 5729 5725 5724 5721 5720 5721 5727 5727 5727 5725 5724 5723 5724 5725 5727 5729 5730 5733 5735 5735 5736 5736 5736 5737 5737 5738 5738 5739 5740 5740 5740 5740 5739 5739 5739 5739 5739 5739 5738 5738 5737 5735 5734 5732
5722 5723 5728 5729 5729 5726 5724 5720 5719 5718 5723 5726 5726 5724 5722 5721 5722 5724 5726 5727 5728 5728 5731 5732 5733 5733 5734 5734 5734 5735 5735 5736 5736 5737 5737 5738 5737 5736 5736 5736 5736 5736 5736 5735 5734 5733 5732 5730 5728
5722 5722 5722 5724 5724 5724 5718 5716 5716 5715 5722 5721 5720 5718 5719 5719 5720 5721 5722 5723 5725 5727 5728 5730 5730 5731 5731 5731 5732 5732 5733 5733 5734 5734 5735 5735 5735 5734 5733 5733 5733 5733 5732 5731 5730 5729 5728 5726 5724
5724 5715 5714 5717 5719 5718 5716 5706 5710 5716 5718 5716 5715 5716 5717 5717 5719 5719 5721 5722 5724 5725 5726 5727 5728 5728 5729 5729 5729 5730 5731 5731 5731 5732 5732 5732 5732 5732 5731 5730 5730 5730 5729 5728 5727 5725 5724 5722 5720
5714 5703 5695 5709 5715 5715 5708 5694 5709 5715 5714 5710 5711 5712 5713 5714 5716 5719 5721 5722 5723 5724 5724 5725 5727 5726 5726 5726 5727 5727 5728 5729 5729 5729 5730 5730 5730 5729 5729 5728 5727 5727 5726 5726 5724 5721 5719 5717 5715
5695 5687 5690 5700 5712 5711 5704 5696 5707 5712 5711 5707 5708 5709 5710 5711 5714 5717 5720 5721 5722 5722 5722 5722 5723 5723 5722 5723 5723 5724 5725 5725 5726 5727 5727 5727 5727 5727 5726 5726 5725 5724 5724 5722 5721 5717 5715 5712 5710
5686 5686 5689 5692 5705 5705 5699 5698 5705 5709 5709 5706 5706 5706 5707 5709 5712 5716 5718 5720 5720 5720 5720 5720 5720 5719 5719 5720 5720 5721 5722 5722 5723 5723 5724 5725 5725 5725 5724 5723 5722 5722 5720 5718 5716 5714 5711 5708 5707
5696 5691 5688 5695 5707 5702 5696 5697 5701 5706 5705 5703 5703 5703 5705 5708 5713 5715 5717 5717 5717 5717 5717 5717 5717 5717 5717 5717 5716 5716 5716 5717 5719 5720 5721 5722 5722 5722 5722 5721 5720 5719 5717 5715 5713 5711 5708 5704 5703
5697 5690 5689 5696 5706 5702 5695 5696 5702 5704 5705 5707 5705 5704 5705 5707 5709 5712 5714 5714 5714 5714 5715 5715 5716 5716 5716 5715 5715 5715 5714 5714 5715 5717 5718 5719 5719 5719 5719 5718 5717 5716 5714 5712 5711 5709 5704 5702 5700
5694 5690 5690 5691 5699 5699 5695 5691 5698 5704 5707 5708 5709 5708 5708 5708 5708 5710 5712 5712 5712 5712 5713 5715 5714 5714 5714 5714 5713 5712 5712 5712 5712 5713 5714 5715 5716 5716 5716 5715 5714 5713 5712 5709 5708 5706 5704 5699 5697
5688 5701 5699 5695 5686 5678 5686 5670 5691 5698 5700 5705 5707 5708 5708 5710 5711 5711 5712 5712 5712 5713 5714 5714 5713 5713 5712 5712 5712 5710 5708 5706 5707 5709 5710 5712 5713 5713 5712 5712 5711 5710 5709 5707 5706 5705 5702 5699 5695
5697 5705 5699 5693 5684 5675 5679 5672 5683 5695 5695 5703 5709 5711 5712 5713 5712 5712 5713 5714 5714 5714 5713 5713 5712 5711 5710 5710 5710 5708 5706 5706 5705 5706 5707 5708 5709 5709 5709 5709 5708 5707 5706 5705 5704 5702 5701 5698 5695
5704 5695 5688 5679 5672 5663 5674 5670 5677 5690 5700 5709 5714 5716 5716 5716 5715 5714 5715 5714 5713 5713 5713 5712 5710 5709 5708 5708 5707 5706 5705 5704 5703 5703 5704 5704 5704 5705 5705 5706 5705 5704 5703 5702 5701 5699 5698 5696 5694
5696 5677 5659 5656 5651 5656 5676 5673 5683 5707 5713 5717 5719 5720 5720 5718 5716 5714 5713 5712 5711 5711 5711 5710 5709 5707 5707 5706 5705 5705 5704 5703 5702 5702 5701 5701 5701 5701 5702 5703 5702 5701 5700 5699 5698 5697 5695 5693 5691
5689 5680 5659 5650 5648 5657 5673 5671 5694 5717 5722 5724 5724 5724 5722 5719 5717 5716 5715 5714 5712 5711 5710 5709 5707 5706 5705 5704 5704 5703 5703 5702 5701 5700 5700 5700 5699 5699 5700 5700 5699 5698 5697 5696 5695 5693 5692 5690 5688
5684 5677 5680 5663 5660 5655 5663 5679 5701 5719 5720 5721 5722 5721 5720 5719 5718 5717 5716 5715 5713 5712 5710 5709 5707 5705 5704 5703 5702 5701 5701 5700 5699 5699 5699 5699 5699 5698 5698 5697 5696 5695 5694 5693 5691 5690 5688 5687 5685
5695 5683 5668 5659 5650 5647 5661 5672 5684 5705 5712 5716 5717 5718 5719 5720 5719 5718 5716 5715 5714 5713 5711 5709 5707 5706 5704 5703 5701 5701 5700 5699 5698 5698 5697 5697 5697 5697 5696 5694 5693 5692 5690 5689 5688 5686 5685 5683 5681
5683 5678 5671 5660 5658 5649 5649 5668 5703 5707 5713 5715 5717 5719 5720 5719 5719 5718 5717 5716 5714 5712 5710 5708 5706 5704 5702 5701 5700 5699 5698 5698 5697 5696 5695 5695 5695 5694 5693 5692 5690 5688 5687 5686 5684 5682 5681 5679 5677
5690 5683 5672 5661 5656 5654 5652 5670 5712 5713 5715 5717 5717 5719 5720 5720 5720 5719 5717 5714 5712 5710 5708 5706 5705 5704 5702 5701 5699 5698 5697 5696 5695 5694 5694 5693 5693 5692 5691 5689 5687 5686 5684 5682 5681 5679 5677 5676 5674